Location: Observatoire
(46.1952°N, 5.3391°E)
Time: 08:08:30
(UTC+01:00)

Altair - Pass Details

Date: 19 February 2026
Orbit: 1502 x 1682 km, 47.2° (Epoch: 9 March)

Event Time Altitude Azimuth Distance (km) Brightness Sun altitude
Rises 03:32:06 0° 202° (SSW) 4,621 - -41.5°
Reaches altitude 10° 03:35:31 10° 193° (SSW) 3,642 - -41.0°
Exits shadow 03:42:41 31° 140° (SE) 2,392 8.4 -39.9°
Maximum altitude 03:43:12 31° 135° (SE) 2,386 8.5 -39.8°
Drops below altitude 10° 03:51:00 10° 77° (ENE) 3,711 10.2 -38.7°
Sets 03:54:30 0° 68° (ENE) 4,720 11.0 -38.1°
